When you browse on this site, cookies collect data to enhance your experience and personalize the content and advertising you see.
Visit our Privacy Policy to learn more. By continuing to use the site, you agree to this use of cookies and data.

Hourly Weather Kabul

Today, 18 September, Friday

Time Temperature Precipitation Wind Pressure Humidity
00:00 +17°C° 0 mm 2 mps 610 mmHg 29%
01:00 +18°C° 0 mm 1 mps 610 mmHg 31%
02:00 +16°C° 0 mm 1 mps 610 mmHg 32%
03:00 +16°C° 0 mm 1 mps 609 mmHg 33%
04:00 +15°C° 0 mm 1 mps 609 mmHg 34%
05:00 +15°C° 0 mm 1 mps 609 mmHg 34%
06:00 +16°C° 0 mm 1 mps 609 mmHg 32%
07:00 +18°C° 0 mm 1 mps 610 mmHg 30%
08:00 +19°C° 0 mm 1 mps 611 mmHg 28%
09:00 +20°C° 0 mm 1 mps 611 mmHg 26%
10:00 +22°C° 0 mm 1 mps 611 mmHg 23%
11:00 +23°C° 0 mm 1 mps 611 mmHg 20%
12:00 +24°C° 0 mm 1 mps 611 mmHg 18%
13:00 +26°C° 0 mm 1 mps 611 mmHg 16%
14:00 +27°C° 0 mm 2 mps 611 mmHg 14%
15:00 +27°C° 0 mm 2 mps 611 mmHg 14%
16:00 +27°C° 0 mm 3 mps 611 mmHg 13%
17:00 +27°C° 0 mm 4 mps 611 mmHg 13%
18:00 +25°C° 0 mm 3 mps 611 mmHg 17%
19:00 +22°C° 0 mm 3 mps 610 mmHg 20%
20:00 +20°C° 0 mm 2 mps 610 mmHg 24%
21:00 +19°C° 0 mm 2 mps 610 mmHg 25%
22:00 +19°C° 0 mm 2 mps 610 mmHg 26%
23:00 +19°C° 0 mm 1 mps 609 mmHg 28%

Tomorrow, 19 September, Saturday

Time Temperature Precipitation Wind Pressure Humidity
00:00 +18°C° 0 mm 1 mps 609 mmHg 28%
01:00 +16°C° 0 mm 1 mps 609 mmHg 29%
02:00 +16°C° 0 mm 1 mps 608 mmHg 29%
03:00 +15°C° 0 mm 1 mps 608 mmHg 29%
04:00 +15°C° 0 mm 1 mps 608 mmHg 30%
05:00 +13°C° 0 mm 0 mps 607 mmHg 30%
06:00 +16°C° 0 mm 1 mps 608 mmHg 27%
07:00 +18°C° 0 mm 1 mps 609 mmHg 24%
08:00 +19°C° 0 mm 1 mps 610 mmHg 21%
09:00 +21°C° 0 mm 1 mps 610 mmHg 18%
10:00 +23°C° 0 mm 1 mps 610 mmHg 16%
11:00 +25°C° 0 mm 1 mps 611 mmHg 13%
12:00 +26°C° 0 mm 1 mps 611 mmHg 11%
13:00 +27°C° 0 mm 2 mps 611 mmHg 9%
14:00 +28°C° 0 mm 2 mps 611 mmHg 6%
15:00 +28°C° 0 mm 2 mps 611 mmHg 6%
16:00 +29°C° 0 mm 2 mps 611 mmHg 5%
17:00 +29°C° 0 mm 2 mps 611 mmHg 5%
18:00 +27°C° 0 mm 2 mps 610 mmHg 7%
19:00 +25°C° 0 mm 1 mps 610 mmHg 10%
20:00 +23°C° 0 mm 1 mps 610 mmHg 12%
21:00 +22°C° 0 mm 1 mps 609 mmHg 13%
22:00 +21°C° 0 mm 1 mps 609 mmHg 15%
23:00 +20°C° 0 mm 1 mps 609 mmHg 16%

Day after tomorrow, 20 September, Sunday

Time Temperature Precipitation Wind Pressure Humidity
00:00 +19°C° 0 mm 1 mps 608 mmHg 17%
01:00 +16°C° 0 mm 0 mps 608 mmHg 18%
02:00 +15°C° 0 mm 0 mps 607 mmHg 18%
03:00 +15°C° 0 mm 0 mps 607 mmHg 18%
04:00 +14°C° 0 mm 0 mps 607 mmHg 17%
05:00 +14°C° 0 mm 0 mps 607 mmHg 17%
06:00 +16°C° 0 mm 0 mps 608 mmHg 15%
07:00 +18°C° 0 mm 0 mps 609 mmHg 13%
08:00 +22°C° 0 mm 1 mps 610 mmHg 11%
09:00 +24°C° 0 mm 1 mps 611 mmHg 9%
10:00 +26°C° 0 mm 1 mps 611 mmHg 8%
11:00 +27°C° 0 mm 1 mps 612 mmHg 7%
12:00 +28°C° 0 mm 1 mps 612 mmHg 6%
13:00 +29°C° 0 mm 1 mps 612 mmHg 5%
14:00 +31°C° 0 mm 1 mps 612 mmHg 4%
15:00 +31°C° 0 mm 1 mps 611 mmHg 4%
16:00 +31°C° 0 mm 2 mps 611 mmHg 3%
17:00 +31°C° 0 mm 2 mps 611 mmHg 3%
18:00 +28°C° 0 mm 2 mps 611 mmHg 5%
19:00 +25°C° 0 mm 2 mps 610 mmHg 6%
20:00 +23°C° 0 mm 1 mps 610 mmHg 8%
21:00 +21°C° 0 mm 2 mps 609 mmHg 9%
22:00 +20°C° 0 mm 2 mps 609 mmHg 9%
23:00 +19°C° 0 mm 2 mps 609 mmHg 9%

21 September, Monday

Time Temperature Precipitation Wind Pressure Humidity
00:00 +19°C° 0 mm 1 mps 609 mmHg 9%
01:00 +18°C° 0 mm 1 mps 608 mmHg 10%
02:00 +16°C° 0 mm 1 mps 608 mmHg 10%
03:00 +16°C° 0 mm 1 mps 608 mmHg 10%
04:00 +15°C° 0 mm 1 mps 608 mmHg 10%
05:00 +14°C° 0 mm 1 mps 608 mmHg 11%
06:00 +16°C° 0 mm 1 mps 608 mmHg 10%
07:00 +19°C° 0 mm 1 mps 609 mmHg 9%
08:00 +20°C° 0 mm 1 mps 610 mmHg 7%
09:00 +22°C° 0 mm 1 mps 611 mmHg 7%
10:00 +24°C° 0 mm 1 mps 611 mmHg 6%
11:00 +26°C° 0 mm 1 mps 611 mmHg 5%
12:00 +27°C° 0 mm 1 mps 612 mmHg 5%
13:00 +28°C° 0 mm 1 mps 612 mmHg 4%
14:00 +29°C° 0 mm 1 mps 612 mmHg 4%
15:00 +29°C° 0 mm 2 mps 612 mmHg 4%
16:00 +29°C° 0 mm 3 mps 611 mmHg 4%
17:00 +29°C° 0 mm 5 mps 611 mmHg 4%
18:00 +26°C° 0 mm 4 mps 611 mmHg 6%
19:00 +24°C° 0 mm 3 mps 610 mmHg 7%
20:00 +20°C° 0 mm 2 mps 610 mmHg 9%
21:00 +19°C° 0 mm 2 mps 610 mmHg 10%
22:00 +18°C° 0 mm 2 mps 610 mmHg 10%
23:00 +17°C° 0 mm 2 mps 610 mmHg 11%

22 September, Tuesday

Time Temperature Precipitation Wind Pressure Humidity
00:00 +16°C° 0 mm 1 mps 609 mmHg 12%
01:00 +16°C° 0 mm 1 mps 609 mmHg 13%
02:00 +15°C° 0 mm 1 mps 608 mmHg 13%
03:00 +14°C° 0 mm 1 mps 608 mmHg 14%
04:00 +14°C° 0 mm 1 mps 608 mmHg 15%
05:00 +13°C° 0 mm 1 mps 608 mmHg 16%
06:00 +15°C° 0 mm 1 mps 609 mmHg 15%
07:00 +16°C° 0 mm 1 mps 609 mmHg 13%
08:00 +19°C° 0 mm 1 mps 610 mmHg 12%
09:00 +21°C° 0 mm 1 mps 610 mmHg 11%
10:00 +22°C° 0 mm 1 mps 610 mmHg 10%
11:00 +24°C° 0 mm 1 mps 611 mmHg 9%
12:00 +25°C° 0 mm 1 mps 611 mmHg 8%
13:00 +26°C° 0 mm 1 mps 611 mmHg 7%
14:00 +28°C° 0 mm 1 mps 611 mmHg 7%
15:00 +28°C° 0 mm 2 mps 611 mmHg 7%
16:00 +28°C° 0 mm 2 mps 610 mmHg 7%
17:00 +28°C° 0 mm 2 mps 610 mmHg 7%
18:00 +26°C° 0 mm 2 mps 610 mmHg 9%
19:00 +24°C° 0 mm 2 mps 609 mmHg 12%
20:00 +21°C° 0 mm 2 mps 609 mmHg 14%
21:00 +20°C° 0 mm 2 mps 609 mmHg 15%
22:00 +20°C° 0 mm 1 mps 608 mmHg 17%
23:00 +19°C° 0 mm 1 mps 608 mmHg 18%

23 September, Wednesday

Time Temperature Precipitation Wind Pressure Humidity
00:00 +18°C° 0 mm 1 mps 608 mmHg 19%
01:00 +16°C° 0 mm 1 mps 607 mmHg 19%
02:00 +15°C° 0 mm 0 mps 607 mmHg 20%
03:00 +14°C° 0 mm 0 mps 607 mmHg 21%
04:00 +14°C° 0 mm 0 mps 606 mmHg 21%
05:00 +13°C° 0 mm 0 mps 606 mmHg 22%
06:00 +15°C° 0 mm 0 mps 607 mmHg 19%
07:00 +17°C° 0 mm 0 mps 608 mmHg 17%
08:00 +18°C° 0 mm 0 mps 609 mmHg 15%
09:00 +22°C° 0 mm 1 mps 609 mmHg 13%
10:00 +23°C° 0 mm 1 mps 610 mmHg 12%
11:00 +25°C° 0 mm 1 mps 610 mmHg 11%
12:00 +26°C° 0 mm 1 mps 610 mmHg 10%
13:00 +27°C° 0 mm 1 mps 610 mmHg 9%
14:00 +28°C° 0 mm 2 mps 610 mmHg 8%
15:00 +28°C° 0 mm 2 mps 610 mmHg 9%
16:00 +28°C° 0 mm 3 mps 610 mmHg 9%
17:00 +28°C° 0 mm 3 mps 610 mmHg 9%
18:00 +26°C° 0 mm 3 mps 609 mmHg 13%
19:00 +24°C° 0 mm 2 mps 609 mmHg 16%
20:00 +20°C° 0 mm 2 mps 608 mmHg 20%
21:00 +19°C° 0 mm 2 mps 608 mmHg 21%
22:00 +18°C° 0 mm 2 mps 608 mmHg 23%
23:00 +18°C° 0 mm 1 mps 608 mmHg 25%
Show more